[[{"header":{"parameterUnit":"m.s-1","parameterCategory":1,"la1":30.2991,"la2":30.254,"lo1":-89.0895,"lo2":-89.0444,"dy":0.0017,"dx":0.0017,"nx":28,"ny":28,"refTime":"2024-04-02T09:00:00:Z","depth":0,"parameterNumber":2,"parameterNumberName":"U-component_of_WINDS"},"data":[0,0,0,0,0,0,0,0,0,0,0,0,0,0,0,0,0,0,0,0,0,0,0,0,0,0,0,0,0,0,0,0,0,0,0,0,0,0,0,0,0,0,0,0,0,0,0,0,0,0,0,0,0,0,0,0,0,0,-1.1941,-1.1941,0,-1.1977,-1.1977,-1.1978,-1.1977,-1.1976,-1.1976,-1.1976,-1.2014,-1.2015,-1.2017,0,0,0,0,0,0,0,0,0,0,0,0,0,-1.1873,-1.1875,-1.1941,-1.1941,-1.1942,-1.1977,-1.1977,-1.1978,-1.1977,-1.1976,-1.1976,-1.1975,-1.2013,-1.2015,-1.2017,0,0,0,0,0,0,0,0,0,0,0,0,0,-1.1905,-1.1875,-1.1941,-1.1945,-1.1946,-1.1977,-1.1977,-1.1978,-1.1977,-1.1976,-1.1976,-1.1975,-1.2013,-1.2015,-1.2017,-1.2046,0,0,-1.2024,-1.2025,0,0,0,0,0,0,0,0,-1.1904,-1.1908,-1.1944,-1.1945,-1.1946,-1.1972,-1.1968,-1.2001,-1.1977,-1.1965,-1.1976,-1.1975,-1.2001,-1.2004,-1.2012,-1.2047,-1.2049,-1.2024,-1.2026,-1.2027,-1.2027,0,0,0,0,0,0,0,-1.1901,-1.1906,-1.1955,-1.1945,-1.1946,-1.1947,-1.195,-1.1974,-1.1987,-1.1966,-1.1967,-1.1971,-1.2001,-1.201,-1.2013,-1.205,-1.2024,-1.2026,-1.2028,-1.2028,-1.211,-1.2111,0,0,0,0,0,0,-1.1898,-1.1904,-1.1954,-1.1956,-1.1923,-1.1948,-1.1952,-1.1964,-1.1986,-1.1989,-1.1971,-1.1971,-1.2007,-1.201,-1.2014,-1.2049,-1.2027,-1.2029,-1.203,-1.211,-1.2111,-1.2112,0,0,0,0,0,0,-1.1896,-1.1902,-1.1952,-1.193,-1.1937,-1.195,-1.1963,-1.1965,-1.1974,-1.199,-1.1993,-1.1978,-1.2006,-1.2011,-1.2038,-1.205,-1.203,-1.2032,-1.2109,-1.211,-1.2111,-1.2118,0,0,0,0,0,0,-1.1894,-1.1902,-1.1912,-1.193,-1.1938,-1.1975,-1.1964,-1.1967,-1.1978,-1.1977,-1.1997,-1.2,-1.2006,-1.2035,-1.204,-1.2053,-1.2033,-1.2108,-1.2109,-1.2111,-1.2117,-1.212,-1.2122,0,0,0,0,0,-1.1892,-1.1913,-1.1913,-1.1919,-1.1951,-1.1975,-1.198,-1.1986,-1.1979,-1.199,-1.2,-1.1999,-1.2048,-1.2037,-1.2043,-1.2057,-1.2107,-1.2109,-1.2111,-1.2116,-1.2119,-1.2122,0,0,0,0,0,0,-1.1896,-1.1915,-1.1915,-1.1943,-1.1957,-1.1975,-1.1989,-1.1989,-1.2007,-1.2005,-1.2013,-1.2018,-1.2044,-1.2054,-1.2041,-1.2086,-1.2077,-1.208,-1.2079,-1.2082,-1.2084,-1.2081,-1.2035,0,0,0,0,0,-1.19,-1.1918,-1.1934,-1.1957,-1.1964,-1.1975,-1.1986,-1.199,-1.2005,-1.2012,-1.2024,-1.204,-1.2059,-1.2071,-1.2089,-1.2119,-1.2123,-1.2132,-1.2134,-1.2136,-1.2139,-1.2155,-1.2159,-1.2118,-1.2118,-1.2118,0,0,-1.1909,-1.1922,-1.1932,-1.1958,-1.197,-1.1988,-1.198,-1.2,-1.2014,-1.2015,-1.204,-1.205,-1.2068,-1.2096,-1.2109,-1.2105,-1.2151,-1.2139,-1.214,-1.2141,-1.2157,-1.2161,-1.2165,-1.2119,-1.2119,-1.2119,0,0,-1.1934,-1.1945,-1.1965,-1.1977,-1.1995,-1.2002,-1.2007,-1.2025,-1.2032,-1.2057,-1.2058,-1.2076,-1.2108,-1.2121,-1.2132,-1.2163,-1.2162,-1.2168,-1.2181,-1.2197,-1.22,-1.2203,-1.2214,-1.2218,-1.2171,-1.2171,-1.2171,0,-1.1942,-1.1969,-1.1976,-1.1995,-1.2007,-1.2008,-1.2029,-1.2041,-1.2064,-1.2072,-1.2067,-1.2108,-1.212,-1.2151,-1.2159,-1.2168,-1.2174,-1.2166,-1.2199,-1.2202,-1.2205,-1.2215,-1.2219,-1.2172,-1.2172,-1.2172,-1.2172,0,-1.1979,-1.1998,-1.2012,-1.2034,-1.2047,-1.2067,-1.2077,-1.209,-1.2093,-1.2101,-1.2128,-1.2143,-1.2164,-1.2172,-1.2175,-1.2204,-1.2201,-1.2197,-1.2188,-1.2209,-1.2219,-1.2223,-1.2173,-1.2172,-1.2172,-1.2172,0,0,-1.2007,-1.2032,-1.2037,-1.2047,-1.2067,-1.2082,-1.2103,-1.2123,-1.2134,-1.215,-1.2168,-1.2196,-1.2193,-1.2205,-1.221,-1.2224,-1.2247,-1.2219,-1.222,-1.2224,-1.228,-1.2282,-1.2286,-1.2248,-1.2249,-1.2249,-1.2278,0,-1.2034,-1.2069,-1.2076,-1.2107,-1.2125,-1.2127,-1.2145,-1.216,-1.2168,-1.2185,-1.2195,-1.2214,-1.2209,-1.2217,-1.2231,-1.2242,-1.2259,-1.224,-1.2264,-1.2265,-1.2259,-1.2291,-1.2293,-1.232,-1.2282,-1.2283,-1.2283,0,-1.2069,-1.2086,-1.2119,-1.2136,-1.2144,-1.216,-1.218,-1.2196,-1.2213,-1.2218,-1.2232,-1.2235,-1.2258,-1.2248,-1.2279,-1.2266,-1.2276,-1.2283,-1.2285,-1.2287,-1.2275,-1.2294,-1.2328,-1.2332,-1.2289,-1.2289,-1.2289,0,-1.2086,-1.2116,-1.214,-1.2148,-1.217,-1.2181,-1.2191,-1.2207,-1.2219,-1.2236,-1.2244,-1.2265,-1.2275,-1.2291,-1.23,-1.2292,-1.2331,-1.2321,-1.2336,-1.2335,-1.2343,-1.2342,-1.2379,-1.2351,-1.2351,-1.2351,-1.2351,0,-1.2114,-1.2134,-1.2147,-1.2162,-1.2185,-1.2193,-1.2215,-1.2225,-1.2239,-1.2256,-1.226,-1.2276,-1.2287,-1.2305,-1.2312,-1.2336,-1.2342,-1.2347,-1.2348,-1.2346,-1.2345,-1.2353,-1.2351,-1.2352,-1.2352,-1.2351,-1.2351,0,-1.2136,-1.2146,-1.2172,-1.219,-1.2195,-1.2211,-1.2227,-1.2241,-1.225,-1.2271,-1.2277,-1.2291,-1.2312,-1.2323,-1.2349,-1.2354,-1.2382,-1.2383,-1.2376,-1.2376,-1.239,-1.2388,-1.2432,-1.2438,-1.2406,-1.2407,-1.2407,0,-1.2154,-1.2169,-1.2189,-1.22,-1.2209,-1.2228,-1.224,-1.2249,-1.2261,-1.2282,-1.2294,-1.2315,-1.2333,-1.2366,-1.2379,-1.24,-1.2401,-1.2415,-1.2404,-1.2401,-1.24,-1.2399,-1.2401,-1.2417,-1.2417,-1.2417,-1.2417,0,-1.2183,-1.2187,-1.2204,-1.2223,-1.2237,-1.2253,-1.2268,-1.2277,-1.2289,-1.2303,-1.2324,-1.2338,-1.2365,-1.2386,-1.2407,-1.2418,-1.242,-1.2421,-1.2425,-1.2423,-1.2418,-1.242,-1.238,-1.242,-1.2419,-1.2419,-1.2419,-1.2419,-1.2204,-1.2217,-1.2233,-1.2252,-1.2264,-1.2278,-1.2293,-1.2303,-1.2321,-1.2343,-1.2347,-1.237,-1.2387,-1.2416,-1.2428,-1.2446,-1.2443,-1.2449,-1.2451,-1.2452,-1.2452,-1.2415,-1.245,-1.245,-1.245,-1.245,-1.245,0,-1.2233,-1.2243,-1.2261,-1.2282,-1.2297,-1.2297,-1.2314,-1.2326,-1.2346,-1.2362,-1.2378,-1.2403,-1.2424,-1.2438,-1.2459,-1.2471,-1.2473,-1.2476,-1.2475,-1.2478,-1.2454,-1.2448,-1.2475,-1.2475,-1.2475,-1.2475,-1.2475,-1.2475,-1.225,-1.2273,-1.2279,-1.2309,-1.2319,-1.2341,-1.235,-1.2364,-1.2376,-1.2403,-1.242,-1.2429,-1.2445,-1.2467,-1.2486,-1.249,-1.2497,-1.2501,-1.2505,-1.2482,-1.2479,-1.2477,-1.2471,-1.2503,-1.2503,-1.2527,-1.2527,-1.2528]},{"header":{"parameterUnit":"m.s-1","parameterCategory":1,"la1":30.2991,"la2":30.254,"lo1":-89.0895,"lo2":-89.0444,"dy":0.0017,"dx":0.0017,"nx":28,"ny":28,"refTime":"2024-04-02T09:00:00:Z","depth":0,"parameterNumber":3,"parameterNumberName":"V-component_of_WINDS"},"data":[0,0,0,0,0,0,0,0,0,0,0,0,0,0,0,0,0,0,0,0,0,0,0,0,0,0,0,0,0,0,0,0,0,0,0,0,0,0,0,0,0,0,0,0,0,0,0,0,0,0,0,0,0,0,0,0,0,0,5.178,5.1781,0,5.1853,5.1854,5.1855,5.1835,5.1834,5.1832,5.1831,5.1909,5.1912,5.1916,0,0,0,0,0,0,0,0,0,0,0,0,0,5.1627,5.163,5.178,5.1781,5.1782,5.1853,5.1854,5.1855,5.1836,5.1834,5.1832,5.183,5.1908,5.1912,5.1916,0,0,0,0,0,0,0,0,0,0,0,0,0,5.1697,5.1631,5.178,5.178,5.1781,5.1853,5.1854,5.1856,5.1836,5.1834,5.1832,5.1829,5.1907,5.1912,5.1917,5.1993,0,0,5.1933,5.1935,0,0,0,0,0,0,0,0,5.1693,5.1702,5.1779,5.1781,5.1782,5.1833,5.1829,5.1902,5.1837,5.1815,5.1831,5.1828,5.1886,5.1893,5.1911,5.1997,5.2,5.1933,5.1936,5.1938,5.194,0,0,0,0,0,0,0,5.1688,5.1699,5.1809,5.1781,5.1782,5.1779,5.1786,5.1843,5.1862,5.1817,5.1816,5.1825,5.1886,5.1906,5.1913,5.2001,5.1933,5.1938,5.1941,5.1943,5.2158,5.216,0,0,0,0,0,0,5.1682,5.1695,5.1807,5.1811,5.1731,5.1783,5.1791,5.1819,5.1861,5.1866,5.1826,5.1823,5.1899,5.1907,5.1916,5.2011,5.1938,5.1943,5.1946,5.2155,5.2158,5.2161,0,0,0,0,0,0,5.1679,5.1692,5.1804,5.1753,5.1767,5.1788,5.1819,5.1821,5.1842,5.1868,5.1872,5.1843,5.1897,5.1908,5.1975,5.2013,5.1946,5.195,5.2152,5.2156,5.216,5.22,0,0,0,0,0,0,5.1674,5.1691,5.1719,5.1754,5.177,5.186,5.1821,5.1824,5.185,5.1847,5.1885,5.189,5.1896,5.1967,5.198,5.2019,5.1954,5.2149,5.2154,5.2158,5.2195,5.2205,5.2213,0,0,0,0,0,5.1669,5.1727,5.172,5.1734,5.1805,5.1862,5.1872,5.1877,5.1853,5.1883,5.1901,5.1888,5.2006,5.1974,5.1988,5.203,5.2146,5.2152,5.2158,5.2191,5.2203,5.2213,0,0,0,0,0,0,5.1697,5.1732,5.1724,5.1795,5.1826,5.1859,5.1896,5.1889,5.1928,5.1923,5.1929,5.1938,5.2007,5.2024,5.1988,5.2108,5.2073,5.2082,5.2094,5.2105,5.2113,5.2109,5.1959,0,0,0,0,0,5.1711,5.1753,5.1782,5.1842,5.1858,5.1874,5.19,5.1901,5.1934,5.1947,5.1969,5.2003,5.2048,5.2077,5.2119,5.2197,5.2207,5.2233,5.2242,5.2249,5.2257,5.2304,5.2316,5.218,5.218,5.218,0,0,5.1741,5.1765,5.1792,5.1848,5.1872,5.1918,5.1885,5.1935,5.197,5.1955,5.2019,5.2037,5.2075,5.2149,5.2182,5.2166,5.2297,5.2256,5.2262,5.2266,5.2311,5.2324,5.2335,5.2184,5.2183,5.2183,0,0,5.182,5.1841,5.1895,5.192,5.1957,5.1968,5.1981,5.2016,5.2027,5.2092,5.2083,5.2125,5.2201,5.2229,5.2254,5.2346,5.2338,5.236,5.2406,5.2451,5.2462,5.2472,5.2508,5.252,5.2368,5.2368,5.2368,0,5.1853,5.192,5.1924,5.1975,5.2001,5.199,5.2046,5.207,5.2119,5.2139,5.2119,5.2217,5.2241,5.2323,5.2346,5.2365,5.2382,5.2356,5.246,5.2469,5.2479,5.2513,5.2526,5.237,5.237,5.237,5.2369,0,5.1961,5.2008,5.2047,5.2095,5.2126,5.2179,5.2193,5.2224,5.2224,5.2237,5.2306,5.2334,5.2384,5.2403,5.2403,5.2486,5.2475,5.2458,5.2424,5.2494,5.2527,5.254,5.2374,5.2373,5.2372,5.2372,0,0,5.2059,5.2109,5.2124,5.2147,5.2188,5.2225,5.2279,5.2328,5.2356,5.239,5.2438,5.2504,5.2489,5.2517,5.252,5.2559,5.2635,5.2537,5.2538,5.2557,5.2732,5.2747,5.2762,5.2628,5.2631,5.2633,5.273,0,5.2143,5.2237,5.2243,5.2329,5.2375,5.2366,5.2413,5.2445,5.246,5.2502,5.2519,5.2567,5.2541,5.2559,5.2597,5.2617,5.267,5.261,5.2675,5.2678,5.2668,5.2778,5.2793,5.2883,5.2742,5.2744,5.2746,0,5.2254,5.2293,5.2384,5.2421,5.244,5.2483,5.2529,5.2569,5.2605,5.2614,5.2646,5.2644,5.2703,5.2665,5.2747,5.2706,5.2733,5.2748,5.2751,5.2759,5.2717,5.2792,5.2911,5.2926,5.2765,5.2764,5.2762,0,5.2321,5.2395,5.246,5.2479,5.2524,5.2554,5.2574,5.2609,5.2638,5.2679,5.2699,5.2746,5.2773,5.2811,5.2823,5.2794,5.2906,5.2869,5.2917,5.2917,5.2942,5.2941,5.3071,5.2956,5.2956,5.2955,5.2955,0,5.2416,5.2472,5.2491,5.2531,5.2595,5.2602,5.2666,5.2684,5.2715,5.2761,5.2755,5.2798,5.2811,5.2857,5.2867,5.2935,5.2946,5.2957,5.2959,5.2959,5.2958,5.2978,5.2973,5.2959,5.2958,5.2957,5.2957,0,5.2501,5.2515,5.2586,5.2622,5.2633,5.2679,5.2711,5.2751,5.2765,5.2823,5.2837,5.2861,5.2915,5.293,5.2995,5.3002,5.3083,5.3079,5.3071,5.3072,5.3121,5.3117,5.327,5.3292,5.316,5.3161,5.3162,0,5.2562,5.2606,5.2647,5.2677,5.2698,5.2746,5.2776,5.2785,5.2818,5.2864,5.29,5.2953,5.2996,5.3084,5.3108,5.3158,5.3157,5.3207,5.3164,5.3163,5.3161,5.3159,5.3166,5.3215,5.3217,5.3218,5.3219,0,5.267,5.2675,5.2719,5.2766,5.2803,5.284,5.2876,5.2901,5.2916,5.2953,5.3008,5.3042,5.3109,5.3163,5.3215,5.3238,5.3233,5.3232,5.3246,5.3248,5.3243,5.3249,5.3096,5.3229,5.3228,5.3227,5.3226,5.3226,5.2747,5.2787,5.2823,5.2873,5.2901,5.2935,5.2976,5.2995,5.3041,5.3096,5.3099,5.316,5.3198,5.3267,5.3293,5.3342,5.3327,5.3347,5.3353,5.3359,5.3364,5.3233,5.3351,5.3351,5.335,5.335,5.335,0,5.2858,5.2881,5.2926,5.2977,5.3017,5.3007,5.3047,5.3082,5.3135,5.3171,5.3214,5.3279,5.3332,5.3361,5.3415,5.3449,5.3448,5.3463,5.3462,5.3468,5.3372,5.3356,5.3463,5.3463,5.3463,5.3463,5.3463,5.3463,5.292,5.2987,5.2997,5.308,5.3103,5.3162,5.3186,5.3219,5.3248,5.3321,5.3365,5.3382,5.3417,5.3473,5.3523,5.353,5.3551,5.3568,5.3575,5.3486,5.3474,5.3463,5.3448,5.3572,5.3572,5.3666,5.3667,5.3668]}]]